QPF
0.00 0.00 0.00 0.00 0.00 0.00 0.00 0.00 0.00 0.00 0.00 0.00 0.00 0.00 0.00 0.00 0.00 0.00 0.00 0.00 0.00 0.00 0.00 0.00 0.00 0.00 0.00 0.00 0.00 0.01 0.00 0.00 0.00 0.00 0.00 0.00 0.00 0.00 0.00 0.00 0.00 0.00 0.00 0.00 0.00
0.00 0.00 0.00 0.00 0.00 0.00 0.00 0.00 0.00 0.00 0.00 0.00 0.00 0.00 0.00 0.00 0.00 0.00 0.00 0.00 0.00 0.00 0.00 0.00 0.00 0.00 0.00 0.00 0.00 0.00 0.00 0.00 0.00 0.00 0.00 0.00 0.00 0.00 0.00 0.00 0.00 0.00 0.00 0.00 0.00
0.00 0.00 0.00 0.00 0.00 0.00 0.00 0.00 0.00 0.00 0.00 0.00 0.00 0.00 0.00 0.00 0.00 0.00 0.01 0.00 0.00 0.00 0.00 0.00 0.00 0.00 0.01 0.01 0.00 0.00 0.00 0.00 0.00 0.00 0.00 0.00 0.00 0.00 0.00 0.00 0.00 0.00 0.00 0.00 0.00
0.00 0.00 0.00 0.00 0.00 0.00 0.00 0.00 0.00 0.00 0.00 0.00 0.00 0.00 0.00 0.00 0.00 0.00 0.00 0.00 0.00 0.00 0.00 0.00 0.00 0.00 0.00 0.01 0.01 0.00 0.00 0.00 0.00 0.00 0.00 0.00 0.00 0.00 0.00 0.00 0.00 0.00 0.00 0.00 0.00
0.00 0.00 0.00 0.00 0.00 0.00 0.00 0.00 0.00 0.00 0.00 0.00 0.00 0.00 0.00 0.00 0.00 0.00 0.00 0.00 0.00 0.00 0.00 0.00 0.01 0.00 0.02 0.00 0.01 0.00 0.00 0.00 0.00 0.00 0.00 0.00 0.00 0.00 0.00 0.00 0.00 0.00 0.00 0.00 0.00
0.00 0.00 0.00 0.00 0.00 0.00 0.00 0.00 0.00 0.00 0.00 0.00 0.00 0.00 0.00 0.00 0.00 0.00 0.00 0.00 0.00 0.00 0.00 0.01 0.02 0.01 0.00 0.02 0.00 0.00 0.00 0.00 0.00 0.00 0.00 0.00 0.00 0.00 0.00 0.00 0.00 0.00 0.00 0.00 0.00
0.00 0.00 0.00 0.00 0.00 0.00 0.00 0.00 0.00 0.00 0.00 0.00 0.00 0.00 0.00 0.00 0.00 0.00 0.00 0.00 0.00 0.00 0.00 0.00 0.01 0.04 0.06 0.02 0.01 0.00 0.00 0.00 0.00 0.00 0.00 0.00 0.00 0.00 0.00 0.00 0.00 0.00 0.00 0.00 0.00
0.00 0.00 0.00 0.00 0.00 0.00 0.00 0.00 0.00 0.00 0.00 0.00 0.00 0.00 0.00 0.00 0.00 0.00 0.00 0.00 0.00 0.00 0.00 0.00 0.00 0.03 0.05 0.04 0.02 0.01 0.01 0.01 0.00 0.00 0.00 0.00 0.00 0.00 0.00 0.00 0.00 0.00 0.00 0.00 0.00
0.00 0.00 0.00 0.00 0.00 0.00 0.00 0.00 0.00 0.00 0.00 0.00 0.00 0.00 0.00 0.00 0.00 0.00 0.00 0.00 0.00 0.00 0.00 0.00 0.00 0.02 0.06 0.08 0.04 0.03 0.06 0.03 0.00 0.00 0.00 0.00 0.00 0.00 0.00 0.00 0.00 0.00 0.00 0.00 0.00
0.00 0.00 0.00 0.00 0.00 0.00 0.00 0.00 0.00 0.00 0.00 0.00 0.00 0.00 0.00 0.00 0.00 0.00 0.00 0.00 0.00 0.00 0.00 0.00 0.00 0.00 0.01 0.05 0.08 0.06 0.04 0.02 0.01 0.00 0.00 0.00 0.00 0.00 0.00 0.00 0.00 0.00 0.00 0.00 0.00
0.00 0.00 0.00 0.00 0.00 0.00 0.00 0.00 0.00 0.00 0.00 0.00 0.00 0.00 0.00 0.00 0.00 0.00 0.00 0.00 0.00 0.00 0.00 0.00 0.00 0.00 0.00 0.01 0.01 0.01 0.01 0.05 0.01 0.01 0.00 0.00 0.00 0.00 0.00 0.00 0.00 0.00 0.00 0.00 0.00
0.00 0.00 0.00 0.00 0.00 0.00 0.00 0.00 0.00 0.00 0.00 0.00 0.00 0.00 0.00 0.00 0.00 0.00 0.00 0.00 0.00 0.00 0.00 0.00 0.00 0.00 0.00 0.00 0.00 0.00 0.00 0.00 0.01 0.00 0.00 0.03 0.02 0.00 0.00 0.00 0.00 0.00 0.00 0.00 0.00
0.00 0.00 0.00 0.00 0.00 0.00 0.00 0.00 0.00 0.00 0.00 0.00 0.00 0.00 0.00 0.00 0.00 0.00 0.00 0.00 0.00 0.00 0.00 0.00 0.00 0.00 0.00 0.00 0.00 0.00 0.00 0.00 0.00 0.00 0.02 0.07 0.12 0.06 0.00 0.00 0.00 0.00 0.00 0.00 0.00
0.00 0.00 0.00 0.00 0.00 0.00 0.00 0.00 0.00 0.00 0.00 0.00 0.00 0.00 0.00 0.00 0.00 0.00 0.00 0.00 0.00 0.00 0.00 0.00 0.00 0.00 0.00 0.00 0.00 0.00 0.00 0.00 0.00 0.00 0.03 0.04 0.11 0.11 0.04 0.01 0.00 0.00 0.00 0.00 0.00
0.00 0.00 0.00 0.00 0.00 0.00 0.00 0.00 0.00 0.00 0.00 0.00 0.00 0.00 0.00 0.00 0.00 0.00 0.00 0.00 0.00 0.00 0.00 0.00 0.00 0.00 0.00 0.00 0.00 0.00 0.00 0.00 0.00 0.00 0.00 0.00 0.01 0.03 0.04 0.09 0.00 0.00 0.00 0.00 0.00
0.00 0.00 0.00 0.00 0.00 0.00 0.00 0.00 0.00 0.00 0.00 0.00 0.00 0.00 0.00 0.00 0.00 0.00 0.00 0.00 0.00 0.00 0.00 0.00 0.00 0.00 0.00 0.00 0.00 0.00 0.00 0.00 0.00 0.00 0.00 0.00 0.00 0.01 0.02 0.03 0.01 0.01 0.00 0.00 0.00
0.00 0.00 0.00 0.00 0.00 0.00 0.00 0.00 0.00 0.00 0.00 0.00 0.00 0.00 0.00 0.00 0.00 0.00 0.00 0.00 0.00 0.00 0.00 0.00 0.00 0.00 0.00 0.00 0.00 0.00 0.00 0.00 0.00 0.00 0.00 0.00 0.00 0.00 0.00 0.02 0.02 0.02 0.00 0.00 0.00
0.00 0.00 0.00 0.00 0.00 0.00 0.00 0.00 0.00 0.00 0.00 0.00 0.00 0.00 0.00 0.00 0.00 0.00 0.00 0.00 0.00 0.00 0.00 0.00 0.00 0.00 0.00 0.00 0.00 0.00 0.00 0.00 0.00 0.00 0.00 0.00 0.00 0.00 0.00 0.00 0.00 0.00 0.00 0.00 0.00
0.00 0.00 0.00 0.00 0.00 0.00 0.00 0.00 0.00 0.00 0.00 0.00 0.00 0.00 0.00 0.00 0.00 0.00 0.00 0.00 0.00 0.00 0.00 0.00 0.00 0.00 0.00 0.00 0.00 0.00 0.00 0.00 0.00 0.00 0.00 0.00 0.00 0.00 0.00 0.00 0.00 0.00 0.00 0.00 0.01
0.00 0.00 0.00 0.00 0.00 0.00 0.00 0.00 0.00 0.00 0.00 0.00 0.00 0.00 0.00 0.00 0.00 0.00 0.00 0.00 0.00 0.00 0.00 0.00 0.00 0.00 0.00 0.00 0.00 0.00 0.00 0.00 0.00 0.00 0.00 0.00 0.00 0.00 0.00 0.00 0.00 0.00 0.00 0.00 0.00
0.00 0.00 0.00 0.00 0.00 0.00 0.00 0.00 0.00 0.00 0.00 0.00 0.00 0.00 0.00 0.00 0.00 0.00 0.00 0.00 0.00 0.00 0.00 0.00 0.00 0.00 0.00 0.00 0.00 0.00 0.00 0.00 0.00 0.00 0.00 0.00 0.00 0.00 0.00 0.00 0.00 0.00 0.00 0.00 0.01
0.00 0.00 0.00 0.00 0.00 0.00 0.00 0.00 0.00 0.00 0.00 0.00 0.00 0.00 0.00 0.00 0.00 0.00 0.00 0.00 0.00 0.00 0.00 0.00 0.00 0.00 0.00 0.00 0.00 0.00 0.00 0.00 0.00 0.00 0.00 0.00 0.00 0.00 0.00 0.00 0.00 0.00 0.00 0.00 0.02
0.00 0.00 0.00 0.00 0.00 0.00 0.00 0.00 0.00 0.00 0.00 0.00 0.00 0.00 0.00 0.00 0.00 0.00 0.00 0.00 0.00 0.00 0.00 0.00 0.00 0.00 0.00 0.00 0.00 0.00 0.00 0.00 0.00 0.00 0.00 0.00 0.00 0.00 0.00 0.00 0.00 0.00 0.00 0.00 0.02
0.00 0.00 0.00 0.00 0.00 0.00 0.00 0.00 0.00 0.00 0.00 0.00 0.00 0.00 0.00 0.00 0.00 0.00 0.00 0.00 0.00 0.00 0.00 0.00 0.00 0.00 0.00 0.00 0.00 0.00 0.00 0.00 0.00 0.00 0.00 0.00 0.00 0.00 0.00 0.00 0.00 0.00 0.00 0.00 0.00
0.00 0.00 0.00 0.00 0.00 0.00 0.00 0.00 0.00 0.00 0.00 0.00 0.00 0.00 0.00 0.00 0.00 0.00 0.00 0.00 0.00 0.00 0.00 0.00 0.00 0.00 0.00 0.00 0.00 0.00 0.00 0.00 0.00 0.00 0.00 0.00 0.00 0.00 0.00 0.00 0.00 0.00 0.00 0.01 0.01
0.00 0.00 0.00 0.00 0.00 0.00 0.00 0.00 0.00 0.00 0.00 0.00 0.00 0.00 0.00 0.00 0.00 0.00 0.00 0.00 0.00 0.00 0.00 0.00 0.00 0.00 0.00 0.00 0.00 0.00 0.00 0.00 0.00 0.00 0.00 0.00 0.00 0.00 0.02 0.01 0.00 0.00 0.00 0.00 0.00
0.00 0.00 0.00 0.00 0.00 0.00 0.00 0.00 0.00 0.00 0.00 0.00 0.00 0.00 0.00 0.00 0.00 0.00 0.00 0.00 0.00 0.00 0.00 0.00 0.00 0.00 0.00 0.00 0.00 0.00 0.00 0.00 0.00 0.00 0.00 0.00 0.00 0.00 0.02 0.01 0.00 0.00 0.00 0.00 0.00
MSLP
1015.21 1014.84 1014.43 1014.09 1013.65 1013.39 1013.15 1012.84 1012.49 1012.36 1012.22 1011.59 1011.25 1010.74 1010.61 1010.14 1009.30 1008.77 1007.06 1006.00 1005.78 1005.81 1006.08 1005.09 1004.67 1004.76 1004.68 1003.94 1004.42 1005.77 1004.88 1003.49 1001.81 1001.96 1002.56 1002.77 1003.18 1004.51 1005.08 1005.62 1006.39 1006.92 1008.87 1010.06 1011.05
1015.25 1014.86 1014.38 1014.06 1013.64 1013.30 1013.00 1012.69 1012.35 1012.14 1012.05 1011.59 1011.11 1010.72 1010.64 1010.30 1008.81 1006.95 1006.02 1005.63 1005.64 1005.71 1005.46 1004.30 1003.67 1003.96 1003.52 1002.92 1003.02 1003.40 1002.91 1002.49 1001.48 1001.92 1002.20 1002.76 1003.42 1004.42 1004.92 1005.66 1006.82 1007.89 1009.17 1010.36 1010.99
1015.23 1014.82 1014.30 1013.93 1013.52 1013.17 1012.80 1012.48 1012.08 1011.89 1011.79 1011.48 1010.98 1010.69 1010.56 1010.20 1007.99 1005.17 1005.62 1005.59 1005.73 1005.55 1004.63 1003.65 1003.14 1003.15 1003.24 1003.78 1003.05 1002.42 1001.31 1001.07 1001.50 1001.78 1002.08 1002.95 1003.68 1004.13 1004.80 1005.72 1007.09 1008.36 1009.52 1010.40 1011.02
1015.19 1014.78 1014.27 1013.75 1013.38 1013.00 1012.67 1012.31 1011.83 1011.63 1011.50 1011.22 1010.86 1010.58 1010.36 1009.30 1006.14 1005.18 1005.45 1005.57 1005.55 1005.41 1004.95 1003.53 1002.75 1002.56 1004.38 1004.93 1003.32 1002.71 1001.29 1001.80 1001.75 1001.87 1002.30 1002.91 1003.36 1003.83 1004.52 1005.79 1007.03 1008.60 1009.53 1010.29 1010.96
1015.19 1014.67 1014.15 1013.69 1013.19 1012.74 1012.46 1012.18 1011.68 1011.38 1011.16 1010.90 1010.69 1010.41 1009.55 1007.61 1004.73 1005.02 1005.47 1005.56 1005.56 1005.50 1004.38 1002.71 1002.43 1002.60 1003.40 1003.59 1003.60 1003.15 1001.88 1001.80 1001.82 1002.21 1002.96 1003.19 1003.88 1004.21 1005.03 1006.23 1007.51 1008.69 1009.41 1009.60 1010.39
1015.13 1014.59 1014.01 1013.55 1012.97 1012.49 1012.14 1011.85 1011.36 1010.96 1010.79 1010.57 1010.47 1010.41 1008.84 1005.42 1003.87 1004.44 1004.75 1005.23 1004.52 1004.10 1002.88 1002.54 1003.44 1003.70 1004.08 1004.14 1004.45 1002.51 1002.08 1002.63 1002.83 1003.22 1003.44 1004.05 1004.91 1005.05 1006.08 1006.86 1007.80 1008.65 1009.22 1009.45 1009.68
1015.03 1014.49 1013.98 1013.36 1012.78 1012.27 1011.75 1011.43 1010.98 1010.42 1010.32 1010.16 1010.23 1009.61 1006.68 1003.22 1003.37 1004.03 1004.23 1004.30 1003.85 1003.16 1002.14 1002.28 1002.70 1003.62 1005.54 1006.42 1003.65 1002.50 1002.78 1003.07 1003.36 1003.59 1004.02 1004.23 1004.99 1005.51 1006.52 1007.23 1008.02 1008.49 1008.79 1009.08 1009.64
1014.93 1014.40 1013.91 1013.22 1012.58 1011.96 1011.42 1010.93 1010.39 1009.87 1009.74 1009.67 1009.92 1008.74 1004.40 1002.58 1002.59 1003.43 1003.29 1003.14 1003.66 1003.47 1002.83 1002.50 1002.82 1004.42 1006.83 1005.52 1005.51 1005.18 1005.51 1004.65 1003.84 1003.67 1004.74 1004.96 1005.40 1005.89 1006.75 1007.41 1007.94 1008.34 1008.62 1009.11 1009.79
1014.83 1014.24 1013.73 1013.07 1012.41 1011.68 1011.04 1010.38 1009.69 1009.40 1009.23 1009.29 1009.07 1007.30 1003.12 1003.00 1002.51 1002.58 1002.41 1002.07 1002.65 1002.90 1002.51 1002.55 1002.80 1003.32 1007.30 1006.14 1006.84 1007.46 1007.47 1006.29 1004.50 1003.51 1004.75 1005.82 1005.70 1006.09 1006.79 1007.22 1007.58 1008.17 1008.78 1009.24 1010.02
1014.80 1014.12 1013.54 1012.77 1012.23 1011.48 1010.40 1009.88 1008.95 1008.93 1008.62 1007.95 1006.76 1005.45 1002.70 1001.81 1001.82 1002.03 1001.98 1001.60 1001.57 1001.72 1001.86 1002.27 1002.49 1002.40 1005.18 1006.06 1007.34 1007.76 1007.48 1007.16 1004.81 1003.87 1004.65 1005.73 1005.80 1006.19 1006.51 1006.80 1007.23 1007.84 1008.55 1009.10 1009.84
1014.60 1013.95 1013.25 1012.55 1011.94 1011.59 1010.21 1008.28 1008.49 1007.54 1006.07 1004.05 1002.74 1002.02 1001.27 1000.76 1001.37 1001.56 1001.73 1001.66 1001.30 1001.05 1000.85 1000.86 1001.30 1000.97 1002.15 1003.69 1004.86 1005.37 1005.26 1005.17 1004.09 1003.68 1003.57 1005.31 1005.81 1006.10 1006.15 1006.12 1006.68 1007.39 1008.11 1008.69 1009.49
1014.39 1013.72 1013.03 1012.21 1011.50 1011.36 1011.00 1007.42 1005.14 1004.53 1003.68 1003.06 1001.86 1001.33 1000.81 1001.00 1001.28 1001.29 1001.50 1001.58 1001.22 1000.54 999.90 999.30 999.19 998.91 1000.61 1002.17 1002.19 1002.68 1003.22 1002.61 1002.70 1002.87 1005.10 1007.66 1008.00 1007.04 1006.17 1005.54 1005.86 1006.54 1007.39 1008.23 1009.15
1014.27 1013.52 1012.67 1011.89 1011.05 1010.22 1007.93 1005.33 1004.71 1004.03 1003.03 1001.21 1001.15 1000.41 1000.82 1001.04 1000.59 1000.46 1001.06 1001.13 1000.60 1000.26 999.37 998.69 998.19 998.59 998.94 999.58 999.92 999.67 999.70 1000.54 1001.96 1003.87 1006.74 1008.11 1009.50 1009.54 1007.05 1006.02 1005.67 1005.87 1006.60 1007.28 1008.29
1013.97 1013.24 1012.53 1011.62 1010.94 1006.94 1005.63 1004.84 1004.36 1003.90 1002.35 999.76 1000.27 1000.15 1000.30 1000.49 1000.24 999.90 1000.15 1000.75 1000.50 999.93 999.47 998.85 998.47 998.72 998.60 998.47 998.44 997.95 997.84 998.52 1000.02 1001.72 1005.89 1008.56 1011.74 1010.68 1008.30 1006.78 1005.55 1005.50 1005.79 1006.56 1007.49
1013.83 1013.01 1012.40 1012.36 1010.17 1006.55 1004.93 1004.70 1004.46 1003.74 1001.08 999.41 999.30 999.23 999.40 1000.09 999.31 999.60 999.60 1000.19 1000.08 999.73 999.91 998.88 998.59 998.71 998.65 998.17 997.93 997.74 998.05 998.44 998.83 999.71 1003.36 1006.98 1007.41 1008.53 1008.43 1007.90 1005.24 1004.64 1005.28 1005.80 1006.71
1013.47 1012.86 1012.26 1010.94 1009.62 1006.47 1005.24 1004.79 1004.34 1003.16 1000.01 998.98 999.06 999.46 999.59 999.84 999.59 999.35 999.74 1000.10 1000.05 1000.01 999.57 999.08 998.90 999.13 998.82 998.56 998.30 998.18 998.38 998.46 998.56 998.82 999.60 1001.19 1003.28 1007.11 1007.97 1006.93 1006.15 1005.59 1005.07 1005.40 1005.73
1012.96 1012.35 1012.25 1009.84 1006.53 1005.67 1005.38 1004.82 1003.57 1001.47 999.45 998.65 998.67 999.08 999.33 999.20 999.46 999.31 999.94 1000.08 1000.16 1000.08 999.65 999.25 998.70 999.00 999.50 999.23 998.77 998.90 998.62 998.11 998.24 998.21 998.49 998.86 1000.21 1003.33 1005.73 1005.71 1006.41 1004.34 1004.46 1005.53 1005.44
1012.28 1011.79 1009.60 1008.46 1007.00 1006.21 1005.52 1004.62 1002.58 1000.14 999.10 998.69 999.19 998.78 998.72 998.96 998.91 999.00 999.59 999.77 1000.03 999.96 999.14 998.52 998.19 998.18 998.76 999.27 999.04 998.76 998.87 998.11 997.50 997.26 998.67 999.23 1000.34 1002.49 1003.19 1004.51 1005.40 1004.23 1004.99 1005.39 1005.96
1011.18 1009.03 1008.01 1006.39 1006.26 1006.21 1005.25 1003.56 1001.65 1000.42 999.39 999.11 999.60 999.22 998.71 998.63 998.62 998.58 998.80 999.17 999.09 999.30 999.46 998.54 997.64 997.07 997.38 998.60 999.13 998.74 998.52 998.91 998.22 997.73 997.93 999.08 1001.26 1002.43 1003.58 1004.27 1004.79 1005.22 1006.47 1007.58 1008.20
1011.39 1007.96 1005.59 1005.67 1005.90 1005.87 1004.85 1002.85 1001.09 1000.35 1000.55 1000.60 1000.35 999.68 998.85 998.45 998.36 998.28 998.04 998.41 998.75 998.65 998.65 998.77 998.38 997.32 997.64 998.54 998.81 998.75 998.67 998.59 998.41 998.53 998.54 998.87 1000.13 1001.09 1003.76 1005.19 1006.53 1008.09 1009.05 1009.92 1011.15
1010.63 1006.68 1005.11 1005.38 1005.60 1005.22 1003.77 1002.23 1001.07 1000.62 1001.42 1001.70 1001.20 1000.57 999.85 999.15 998.44 998.03 997.73 998.30 998.13 998.43 998.38 998.61 999.09 998.39 998.02 998.67 999.00 998.84 999.31 999.29 998.96 998.88 998.84 999.39 1000.54 1002.08 1003.66 1005.95 1008.69 1010.90 1012.14 1012.68 1013.23
1009.29 1005.41 1004.90 1005.02 1004.93 1003.91 1002.94 1002.10 1001.87 1001.06 1001.86 1002.31 1002.04 1001.63 1000.97 1000.23 999.62 998.89 998.12 997.80 997.87 998.03 998.32 999.01 999.39 998.83 998.18 998.28 998.82 999.09 998.82 998.82 999.08 999.44 999.62 1000.17 1002.00 1002.87 1004.80 1006.75 1009.67 1012.56 1014.06 1014.79 1015.31
1009.89 1005.41 1004.50 1004.65 1003.65 1002.55 1001.86 1002.24 1002.20 1002.28 1002.23 1002.05 1002.11 1002.06 1001.90 1001.44 1000.94 1000.22 999.31 998.52 998.59 998.00 998.99 999.47 999.89 999.54 998.84 998.68 999.08 999.09 999.16 999.14 999.01 999.21 999.67 1000.18 1002.72 1004.33 1006.99 1009.24 1011.39 1013.41 1014.91 1015.72 1016.29
1010.43 1005.54 1004.25 1004.53 1004.10 1003.43 1002.49 1002.54 1002.28 1002.38 1002.74 1002.73 1002.62 1002.48 1002.18 1001.83 1001.46 1001.03 1000.30 999.49 999.33 999.66 1000.29 1000.47 1000.33 999.87 999.22 999.33 999.12 999.33 999.46 999.45 999.71 999.93 1000.26 1000.63 1003.61 1005.77 1007.61 1009.82 1012.08 1014.08 1015.43 1016.31 1016.82
1010.02 1006.20 1005.47 1004.08 1003.57 1003.43 1003.33 1003.36 1002.95 1002.51 1002.42 1002.63 1002.62 1002.58 1002.34 1002.07 1001.75 1001.23 1000.85 1000.11 999.96 1000.61 1000.85 1000.95 1000.91 1000.62 1000.00 1000.01 999.90 999.95 999.99 999.89 1000.05 1000.63 1001.05 1001.87 1002.89 1004.79 1007.70 1010.03 1012.06 1014.05 1015.46 1016.34 1016.94
1010.27 1008.92 1007.66 1005.78 1005.10 1004.94 1004.31 1003.61 1003.27 1003.27 1003.30 1003.14 1002.87 1002.54 1002.37 1001.98 1001.71 1001.36 1000.90 1000.65 1000.37 1001.10 1001.18 1000.99 1001.25 1001.49 1001.17 1001.48 1000.97 1000.83 1001.02 1001.46 1001.12 1001.37 1001.94 1002.72 1004.04 1005.59 1008.00 1010.52 1012.25 1013.69 1014.99 1015.78 1016.47
1011.50 1010.49 1008.96 1006.90 1005.49 1004.97 1004.12 1004.09 1004.23 1004.09 1003.73 1003.20 1003.01 1002.68 1002.16 1001.69 1001.47 1001.19 1000.99 1001.17 1001.60 1001.64 1001.99 1001.50 1001.26 1001.85 1002.29 1002.39 1002.93 1002.38 1001.88 1001.80 1001.69 1002.22 1002.96 1003.96 1005.66 1007.21 1009.70 1010.23 1011.86 1012.80 1013.44 1014.50 1015.31
Thickness
5758 5761 5766 5770 5774 5777 5779 5782 5784 5786 5789 5796 5799 5804 5804 5807 5814 5819 5822 5840 5845 5847 5846 5851 5851 5847 5847 5842 5847 5828 5801 5801 5823 5822 5823 5845 5833 5838 5844 5831 5832 5835 5816 5815 5816
5758 5762 5767 5771 5775 5779 5782 5784 5787 5789 5791 5797 5802 5806 5806 5808 5819 5824 5840 5845 5848 5849 5846 5846 5843 5847 5841 5849 5851 5833 5817 5810 5846 5844 5836 5842 5837 5832 5830 5826 5820 5820 5823 5818 5816
5758 5763 5768 5773 5777 5781 5784 5787 5791 5792 5795 5799 5804 5807 5809 5811 5817 5833 5842 5846 5848 5852 5858 5862 5860 5850 5834 5834 5844 5845 5834 5853 5851 5855 5854 5840 5835 5845 5830 5817 5821 5809 5809 5812 5811
5759 5764 5769 5775 5779 5783 5786 5790 5795 5796 5798 5802 5807 5810 5811 5820 5808 5845 5847 5849 5851 5854 5853 5856 5859 5849 5815 5805 5840 5828 5860 5854 5855 5860 5852 5841 5849 5839 5840 5831 5837 5825 5820 5815 5809
5759 5765 5770 5776 5782 5786 5789 5793 5798 5800 5802 5805 5809 5813 5822 5823 5838 5855 5853 5853 5855 5853 5853 5858 5852 5853 5832 5838 5840 5836 5853 5860 5863 5859 5851 5854 5839 5838 5835 5841 5838 5828 5822 5820 5817
5760 5766 5772 5778 5784 5789 5793 5797 5802 5805 5807 5809 5812 5814 5824 5818 5869 5864 5862 5858 5861 5860 5866 5865 5830 5849 5843 5829 5828 5859 5858 5851 5853 5848 5849 5835 5830 5837 5831 5838 5829 5824 5819 5822 5823
5760 5767 5772 5779 5786 5792 5798 5801 5807 5812 5812 5814 5815 5821 5832 5846 5875 5870 5868 5862 5871 5872 5867 5873 5872 5845 5833 5811 5863 5871 5845 5848 5845 5846 5837 5846 5819 5820 5833 5833 5821 5821 5823 5825 5824
5761 5767 5773 5780 5787 5794 5801 5806 5812 5817 5819 5820 5819 5826 5837 5882 5885 5873 5877 5871 5874 5877 5875 5881 5880 5849 5815 5834 5833 5823 5810 5799 5840 5847 5837 5833 5797 5825 5834 5826 5818 5821 5824 5822 5821
5761 5768 5775 5782 5789 5796 5804 5811 5817 5821 5823 5824 5826 5830 5841 5880 5868 5880 5884 5871 5874 5876 5881 5883 5874 5855 5809 5786 5800 5776 5762 5776 5815 5854 5836 5816 5806 5827 5834 5827 5821 5821 5820 5820 5817
5761 5769 5776 5784 5790 5798 5808 5814 5822 5824 5828 5834 5842 5829 5858 5854 5874 5880 5889 5887 5873 5872 5866 5860 5856 5849 5818 5764 5739 5766 5762 5766 5798 5840 5838 5817 5816 5826 5831 5828 5822 5822 5820 5819 5817
5763 5771 5778 5786 5792 5797 5811 5827 5821 5820 5835 5839 5850 5852 5862 5883 5888 5873 5883 5875 5875 5867 5843 5862 5839 5836 5842 5841 5825 5813 5800 5772 5827 5850 5847 5822 5822 5823 5831 5832 5825 5823 5820 5821 5819
5764 5771 5779 5787 5795 5798 5802 5822 5838 5844 5826 5851 5860 5862 5876 5878 5850 5866 5884 5853 5853 5840 5864 5862 5847 5877 5868 5843 5844 5838 5818 5830 5845 5860 5826 5792 5791 5823 5836 5838 5836 5830 5825 5822 5821
5764 5771 5780 5789 5797 5807 5824 5837 5855 5856 5824 5848 5859 5860 5859 5867 5851 5857 5871 5859 5849 5843 5854 5850 5869 5881 5870 5861 5854 5866 5862 5852 5836 5825 5808 5791 5770 5776 5827 5841 5842 5841 5838 5835 5827
5764 5772 5779 5789 5797 5831 5828 5847 5856 5855 5805 5835 5841 5853 5863 5864 5845 5881 5882 5861 5849 5840 5853 5855 5875 5860 5860 5858 5868 5855 5891 5882 5861 5844 5774 5778 5726 5731 5800 5819 5838 5840 5840 5836 5834
5763 5771 5777 5779 5797 5816 5834 5848 5849 5839 5771 5840 5846 5883 5871 5847 5859 5859 5887 5862 5838 5845 5847 5844 5856 5850 5847 5859 5873 5860 5876 5871 5871 5865 5802 5780 5786 5772 5796 5787 5830 5842 5842 5841 5839
5765 5770 5776 5789 5797 5821 5836 5841 5832 5786 5774 5823 5843 5836 5835 5843 5847 5860 5857 5867 5864 5842 5849 5850 5870 5856 5856 5866 5869 5874 5858 5861 5866 5865 5836 5846 5821 5773 5781 5800 5814 5825 5839 5843 5844
5767 5772 5774 5790 5807 5827 5831 5817 5779 5772 5834 5824 5824 5834 5829 5827 5831 5838 5829 5825 5815 5802 5808 5835 5844 5856 5857 5839 5860 5853 5842 5817 5811 5822 5826 5882 5851 5806 5807 5814 5812 5786 5838 5842 5848
5769 5773 5791 5799 5810 5817 5812 5787 5759 5811 5818 5840 5827 5832 5818 5829 5829 5831 5818 5810 5828 5823 5817 5812 5805 5843 5854 5839 5833 5838 5838 5820 5801 5821 5816 5860 5823 5808 5841 5836 5837 5853 5846 5844 5843
5775 5793 5796 5811 5813 5811 5791 5765 5780 5803 5824 5817 5814 5806 5813 5826 5828 5825 5820 5814 5828 5831 5800 5809 5820 5871 5866 5850 5845 5833 5822 5851 5829 5848 5835 5837 5823 5835 5838 5837 5841 5841 5827 5815 5814
5768 5790 5804 5812 5811 5798 5776 5767 5797 5816 5809 5806 5784 5806 5799 5816 5816 5821 5824 5833 5823 5840 5846 5824 5800 5853 5852 5848 5847 5838 5856 5818 5830 5788 5787 5827 5813 5810 5807 5812 5810 5804 5800 5799 5789
5769 5782 5803 5809 5804 5780 5762 5780 5799 5813 5802 5786 5784 5787 5798 5801 5817 5820 5824 5829 5841 5832 5844 5832 5811 5817 5842 5814 5811 5823 5812 5821 5829 5828 5805 5802 5806 5822 5812 5810 5785 5771 5770 5771 5772
5771 5770 5801 5804 5765 5776 5770 5785 5778 5797 5794 5784 5785 5782 5782 5792 5794 5801 5809 5826 5849 5842 5819 5824 5807 5792 5817 5840 5838 5828 5825 5831 5800 5794 5815 5812 5786 5827 5815 5807 5783 5756 5749 5751 5751
5752 5777 5800 5792 5755 5770 5786 5779 5783 5776 5775 5776 5771 5779 5783 5773 5765 5784 5797 5830 5831 5834 5813 5815 5790 5772 5792 5820 5825 5811 5823 5826 5830 5828 5805 5800 5770 5800 5790 5776 5765 5748 5737 5736 5737
5742 5755 5774 5773 5774 5763 5764 5762 5762 5778 5769 5771 5767 5774 5769 5764 5776 5766 5777 5809 5816 5815 5797 5804 5791 5786 5779 5792 5810 5795 5803 5815 5811 5792 5799 5809 5767 5768 5769 5760 5750 5734 5726 5723 5724
5740 5752 5757 5748 5758 5762 5760 5755 5750 5752 5771 5771 5760 5760 5757 5746 5752 5755 5771 5789 5798 5781 5794 5791 5768 5787 5804 5802 5803 5796 5794 5802 5794 5797 5784 5791 5779 5758 5759 5751 5736 5724 5717 5715 5711
5722 5722 5735 5742 5748 5740 5732 5743 5744 5747 5749 5746 5746 5755 5755 5744 5749 5744 5764 5773 5776 5777 5775 5791 5762 5778 5778 5783 5792 5784 5787 5783 5783 5786 5783 5781 5762 5761 5758 5743 5721 5714 5710 5706 5704
5717 5721 5720 5726 5736 5733 5736 5736 5734 5742 5749 5755 5749 5744 5743 5752 5765 5771 5782 5778 5773 5761 5760 5771 5773 5764 5752 5775 5761 5755 5776 5779 5784 5785 5773 5752 5748 5743 5726 5717 5720 5716 5715 5708 5705